Location: Val-d'Or
(48.1170°N, 77.7670°W)
Time: 12:10:02
(UTC-04:00)

ISS - Visible Passes

Search period start: 16 July 2018 00:00
Search period end: 26 July 2018 00:00
Orbit: 402 x 408 km, 51.6° (Epoch: 17 July)

Date Brightness Start Highest point End Pass type
(mag) Time Alt. Az. Time Alt. Az. Time Alt. Az.
16 Jul -3.1 01:09:47 44° ENE 01:09:47 44° ENE 01:12:10 10° ENE visible
16 Jul -2.7 02:42:25 10° W 02:45:32 44° N 02:48:44 10° ENE visible
16 Jul -3.1 04:19:06 10° WNW 04:22:22 59° NNE 04:25:38 10° E visible
17 Jul -1.7 00:19:02 18° ENE 00:19:02 18° ENE 00:20:03 10° ENE visible
17 Jul -3.0 01:51:38 23° WNW 01:53:22 50° N 01:56:36 10° ENE visible
17 Jul -2.8 03:27:00 10° WNW 03:30:12 48° N 03:33:25 10° E visible
18 Jul -3.4 01:00:30 47° WNW 01:01:12 63° NNW 01:04:29 10° ENE visible
18 Jul -2.6 02:34:50 10° WNW 02:38:01 43° N 02:41:11 10° ENE visible
18 Jul -3.8 04:11:25 10° WNW 04:14:43 90° NNW 04:18:01 10° ESE visible
18 Jul -1.6 22:30:26 10° S 22:35:07 11° E 22:35:22 10° E visible
19 Jul -3.9 00:07:05 22° WSW 00:09:04 87° NNW 00:12:22 10° ENE visible
19 Jul -2.6 01:42:37 10° WNW 01:45:47 43° N 01:48:58 10° ENE visible
19 Jul -3.4 03:19:18 10° WNW 03:22:35 65° NNE 03:25:52 10° E visible
19 Jul -1.9 21:39:43 10° SSE 21:41:02 12° SE 21:42:20 10° ESE visible
19 Jul -3.9 23:13:43 10° SW 23:16:58 62° SSE 23:20:14 10° ENE visible
20 Jul -2.8 00:50:22 10° W 00:53:34 47° N 00:56:46 10° ENE visible
20 Jul -2.9 02:27:10 10° WNW 02:30:23 51° N 02:33:37 10° E visible
20 Jul -3.7 04:03:43 10° WNW 04:06:56 50° SSW 04:10:07 10° SE visible
20 Jul -3.4 22:21:51 10° SW 22:24:55 38° SSE 22:28:01 10° ENE visible
20 Jul -3.2 23:58:06 10° W 00:01:21 57° NNW 00:04:37 10° ENE visible
21 Jul -2.7 01:35:00 10° WNW 01:38:11 44° N 01:41:22 10° E visible
21 Jul -4.0 03:11:32 10° WNW 03:14:51 79° SSW 03:18:08 10° ESE visible
21 Jul -2.2 04:48:48 10° W 04:50:54 16° SW 04:52:59 10° S visible
21 Jul -3.7 23:05:53 10° WSW 23:09:10 77° NNW 23:12:28 10° ENE visible
22 Jul -2.6 00:42:45 10° WNW 00:45:55 42° N 00:49:05 10° ENE visible
22 Jul -3.7 02:19:23 10° WNW 02:22:41 73° NNE 02:25:58 10° ESE visible
22 Jul -2.8 03:56:09 10° W 03:58:58 26° SW 04:01:45 10° SSE visible
22 Jul -3.9 22:13:44 10° WSW 22:17:00 74° SSE 22:20:18 10° ENE visible
22 Jul -2.7 23:50:29 10° W 23:53:39 45° N 23:56:51 10° ENE visible
23 Jul -3.2 01:27:14 10° WNW 01:30:29 55° NNE 01:30:48 52° NE visible
23 Jul -3.0 22:58:10 10° W 23:01:24 52° NNW 23:04:38 10° ENE visible
24 Jul -2.8 00:35:01 10° WNW 00:38:13 46° N 00:39:23 31° ENE visible
24 Jul -1.2 02:11:33 10° WNW 02:11:59 13° WNW 02:11:59 13° WNW visible
24 Jul -3.5 22:05:53 10° WSW 22:09:09 68° NNW 22:12:26 10° ENE visible
24 Jul -2.6 23:42:46 10° WNW 23:45:56 43° N 23:48:26 15° ENE visible
25 Jul -2.1 01:19:22 10° WNW 01:21:02 27° WNW 01:21:02 27° WNW visible
25 Jul -2.6 22:50:28 10° WNW 22:53:38 43° N 22:56:48 10° ENE visible
